Weather History for Hill City, KS

Change the Weather History Date:

Thursday, February 20, 2014

  Actual Average Record
Temperature  
Mean Temperature 36 °F 34 °F  
Max Temperature 45 °F 47 °F 78 °F (1981)
Min Temperature 26 °F 21 °F 4 °F (1978)
Degree Days  
Heating Degree Days 30    
Moisture  
Dew Point 27 °F    
Average Humidity 76    
Maximum Humidity 92    
Minimum Humidity 35    
Precipitation  
Precipitation 0.11 in 0.02 in 0.38 in (2013)
Month to date precipitation 0.25 0.36  
Year to date precipitation 0.35 0.81  
Sea Level Pressure  
Sea Level Pressure 29.75 in    
Wind  
Wind Speed 21 mph (NNW)    
Max Wind Speed 33 mph    
Max Gust Speed 46 mph    
Visibility 6 miles    
Events Rain , Snow    
T = Trace of Precipitation, MM = Missing Value Source: NWS Daily Summary

Daily Weather History Graph

Daily Weather History Graph

Search for Another Location

Airport:

Trip Planner

Search our weather history database for the weather conditions in past years. The results will help you decide how hot, cold, wet, or windy it might be!

Date:

Astronomy

Feb. 20, 2014 Rise Set
Actual Time 7:24 AM CST 6:21 PM CST
Civil Twilight 6:57 AM CST 6:49 PM CST
Nautical Twilight 6:26 AM CST 7:20 PM CST
Astronomical Twilight 5:55 AM CST 7:51 PM CST
Moon No Moon Rise 10:10 AM CST (2/20)
Length of Visible Light 11h 51m
Length of Day
10h 57m
Waning Gibbous, 70% of the Moon is Illuminated
Feb 20
Waning Gibbous
Feb 22
Last Quarter
Mar 1
New
Mar 8
First Quarter
Mar 16
Full

Hourly Weather History & Observations

Time (CST) Temp. Windchill Dew Point Humidity Pressure Visibility Wind Dir Wind Speed Gust Speed Precip Events Conditions
12:53 AM 37.9 °F 34.4 °F 28.0 °F 68% 29.48 in 10.0 mi NNW 4.6 mph - N/A   Mostly Cloudy
1:53 AM 37.9 °F 29.2 °F 30.9 °F 76% 29.49 in 10.0 mi North 15.0 mph - 0.00 in Rain Light Rain
2:53 AM 39.0 °F 29.6 °F 30.0 °F 70% 29.47 in 10.0 mi North 18.4 mph 28.8 mph 0.00 in   Overcast
3:53 AM 37.0 °F 24.1 °F 32.0 °F 82% 29.53 in 3.0 mi NNE 32.2 mph 46.0 mph 0.02 in Snow Light Snow
4:00 AM 37.0 °F 24.9 °F 32.0 °F 82% 29.54 in 3.0 mi North 27.6 mph 39.1 mph 0.01 in Snow Light Snow
4:19 AM 34.0 °F 20.3 °F 32.0 °F 92% 29.56 in 2.5 mi North 29.9 mph 41.4 mph 0.02 in Snow Light Snow
4:25 AM 34.0 °F 20.5 °F 30.9 °F 89% 29.57 in 1.2 mi North 28.8 mph 42.6 mph 0.03 in Snow Light Snow
4:42 AM 33.1 °F 19.8 °F 30.9 °F 92% 29.57 in 1.2 mi North 26.5 mph 36.8 mph 0.04 in Snow Light Snow
4:53 AM 33.1 °F 18.4 °F 30.9 °F 92% 29.59 in 0.8 mi North 33.4 mph 43.7 mph 0.04 in Snow Light Snow
5:19 AM 33.1 °F 18.7 °F 30.9 °F 92% 29.62 in 1.0 mi North 32.2 mph 40.3 mph 0.02 in Snow Light Snow
5:35 AM 33.1 °F 19.8 °F 30.9 °F 92% 29.64 in 1.0 mi North 26.5 mph 41.4 mph 0.03 in Snow Light Snow
5:43 AM 33.1 °F 19.3 °F 30.9 °F 92% 29.65 in 0.8 mi North 28.8 mph 36.8 mph 0.03 in Snow Light Snow
5:51 AM 33.8 °F 20.1 °F 30.2 °F 87% 29.65 in 1.0 mi North 29.9 mph 42.6 mph 0.03 in Snow Light Snow
5:53 AM 33.1 °F 18.9 °F 30.9 °F 92% 29.68 in 1.0 mi North 31.1 mph 42.6 mph 0.04 in Snow Light Snow
6:08 AM 33.1 °F 19.3 °F 30.9 °F 92% 29.68 in 1.5 mi North 28.8 mph 43.7 mph 0.00 in Snow Light Snow
6:35 AM 33.1 °F 19.6 °F 30.9 °F 92% 29.70 in 0.8 mi North 27.6 mph 40.3 mph 0.00 in Snow Light Snow
6:40 AM 33.1 °F 19.1 °F 30.9 °F 92% 29.70 in 0.8 mi North 29.9 mph 38.0 mph 0.00 in Snow Light Snow
6:53 AM 33.1 °F 19.6 °F 30.9 °F 92% 29.73 in 0.8 mi North 27.6 mph 36.8 mph 0.01 in Snow Light Snow
7:03 AM 33.1 °F 19.3 °F 30.9 °F 92% 29.70 in 1.0 mi North 28.8 mph 39.1 mph 0.00 in Snow Light Snow
7:12 AM 33.1 °F 20.3 °F 30.0 °F 89% 29.69 in 1.5 mi North 24.2 mph 39.1 mph 0.00 in Snow Light Snow
7:20 AM 33.1 °F 20.6 °F 30.0 °F 89% 29.69 in 3.0 mi North 23.0 mph 35.7 mph 0.00 in Snow Light Snow
7:53 AM 33.1 °F 21.9 °F 30.0 °F 89% 29.76 in 10.0 mi NNW 18.4 mph - 0.00 in   Overcast
8:53 AM 33.1 °F 25.5 °F 30.0 °F 89% 29.81 in 10.0 mi WNW 9.2 mph - N/A   Overcast
9:53 AM 35.1 °F 25.9 °F 28.0 °F 76% 29.83 in 10.0 mi NW 13.8 mph 21.9 mph N/A   Clear
10:53 AM 36.0 °F 26.0 °F 26.1 °F 67% 29.85 in 10.0 mi NW 17.3 mph 26.5 mph N/A   Clear
11:53 AM 37.9 °F 27.1 °F 24.1 °F 57% 29.86 in 10.0 mi NW 23.0 mph 35.7 mph N/A   Clear
12:53 PM 41.0 °F 30.2 °F 23.0 °F 49% 29.86 in 10.0 mi WNW 27.6 mph 40.3 mph N/A   Clear
1:53 PM 43.0 °F 32.5 °F 21.9 °F 43% 29.86 in 10.0 mi WNW 29.9 mph 39.1 mph N/A   Clear
2:53 PM 44.1 °F 34.6 °F 19.9 °F 38% 29.88 in 10.0 mi WNW 26.5 mph 38.0 mph N/A   Clear
3:53 PM 39.9 °F 28.8 °F 19.0 °F 43% 29.92 in 10.0 mi NW 27.6 mph 46.0 mph N/A   Mostly Cloudy
4:53 PM 43.0 °F 32.4 °F 17.1 °F 35% 29.93 in 10.0 mi WNW 31.1 mph 43.7 mph 0.00 in   Partly Cloudy
5:53 PM 39.9 °F 30.5 °F 18.0 °F 41% 29.95 in 10.0 mi NW 19.6 mph 29.9 mph N/A   Clear
6:53 PM 37.0 °F 28.9 °F 19.0 °F 48% 29.97 in 10.0 mi WNW 12.7 mph - N/A   Clear
7:53 PM 32.0 °F 23.6 °F 21.0 °F 64% 29.99 in 10.0 mi West 10.4 mph - N/A   Clear
8:53 PM 30.0 °F 22.4 °F 21.0 °F 69% 29.99 in 10.0 mi West 8.1 mph - N/A   Clear
9:53 PM 27.0 °F 18.7 °F 21.0 °F 78% 29.99 in 10.0 mi West 8.1 mph - N/A   Clear
10:53 PM 27.0 °F 18.0 °F 19.9 °F 75% 29.98 in 10.0 mi West 9.2 mph - N/A   Clear
11:53 PM 26.1 °F 16.8 °F 19.0 °F 75% 29.97 in 10.0 mi West 9.2 mph - N/A   Clear